Limpo, com nuvens cirrus
Nublado
Nublado
Muito nublado e cirrus
Parcialmente enevoado e nuvens cirrus
Limpo, com algumas nuvens baixas e cirrus
Muito nublado e cirrus
(°C)
12°
12°
11°
11°
(°C)
NNE
N
N
N
N
N
N
(km/h)
30-50
21-44
19-39
18-34
17-30
16-30
15-28
(mm)
0
0
0
0
0
0
0
(%)
0
0
0
0
0
0
0

Elevação do sol

/ 9.2°
sun-icon
UV 2
04:34
21:06
Crescente gibosa (134°)
16:17
03:18

METAR para 55.31°N 61.5°L (USCC)

Hora Condições Temperatura/
Ponto de condensação
Vento Visibilidade Tempo Nuvens Pressão Mudança Bruto
VFR 12°C / -3°C 10º 16kt 9700m - Clouds and Visibility OK 1013 No Significant change USCC 191400Z 01008MPS CAVOK 12/M03 Q1013 R27/000060 NOSIG RMK QFE740
VFR 12°C / -2°C 20º 16kt 9700m - Clouds and Visibility OK 1013 No Significant change USCC 191330Z 02008MPS CAVOK 12/M02 Q1013 R27/000060 NOSIG RMK QFE740
VFR 12°C / -2°C 10º 16kt 9700m - Clouds and Visibility OK 1013 No Significant change USCC 191300Z 01008MPS CAVOK 12/M02 Q1013 R27/000060 NOSIG RMK QFE740
VFR 12°C / -1°C 10º 14kt 9700m - Scattered Clouds 4000ft 1013 No Significant change USCC 191230Z 01007MPS 9999 SCT040 12/M01 Q1013 R27/000060 NOSIG RMK QFE740
VFR 13°C / -1°C 20º 17kt 9700m - Scattered Clouds 4000ft 1013 No Significant change USCC 191200Z 02009MPS 9999 SCT040 13/M01 Q1013 R27/000060 NOSIG RMK QFE740
VFR 12°C / -1°C 20º 14kt 9700m - Scattered Clouds 4000ft 1014 No Significant change USCC 191130Z 02007MPS 9999 SCT040CB 12/M01 Q1014 R27/000060 NOSIG RMK QFE740
VFR 12°C / -1°C 10º 16kt 9700m - Scattered Clouds 4000ft 1013 No Significant change USCC 191100Z 01008MPS 9999 SCT040CB 12/M01 Q1013 R27/000060 NOSIG RMK QFE740
VFR 12°C / -1°C 10º 17kt 9700m - Scattered Clouds 4000ft 1013 No Significant change USCC 191030Z 01009MPS 9999 SCT040CB 12/M01 Q1013 R27/000060 NOSIG RMK QFE740
VFR 12°C / -1°C 20º 14kt 9700m - Scattered Clouds 4000ft 1014 No Significant change USCC 191000Z 02007MPS 9999 SCT040CB 12/M01 Q1014 R27/000060 NOSIG RMK QFE740
VFR 11°C / 0°C 10º 17kt 9700m - Scattered Clouds 4000ft 1014 No Significant change USCC 190930Z 01009MPS 9999 SCT040CB 11/M00 Q1014 R27/000060 NOSIG RMK QFE740
VFR 10°C / 0°C 10º 14kt 9700m - Scattered Clouds 4000ft 1014 No Significant change USCC 190900Z 01007MPS 9999 SCT040CB 10/M00 Q1014 R27/000060 NOSIG RMK QFE740
VFR 10°C / 0°C 10º 17kt 9700m - Scattered Clouds 4000ft 1014 No Significant change USCC 190830Z 01009MPS 9999 SCT040CB 10/M00 Q1014 R27/000060 NOSIG RMK QFE740
VFR 10°C / 0°C 10º 17kt 9700m - Scattered Clouds 3000ft 1014 No Significant change USCC 190800Z 01009MPS 9999 SCT030CB 10/M00 Q1014 R27/000060 NOSIG RMK QFE741
VFR 9°C / 0°C 360º 17kt 9700m - Scattered Clouds 3000ft 1014 No Significant change USCC 190730Z 36009MPS 9999 SCT030CB 09/00 Q1014 R27/000060 NOSIG RMK QFE740
VFR 10°C / 0°C 20º 17kt Gust 27kt 9700m - Scattered Clouds 3000ft 1014 No Significant change USCC 190700Z 02009G14MPS 9999 SCT030CB 10/00 Q1014 R27/000060 NOSIG RMK QFE741
VFR 8°C / 0°C 360º 17kt 9700m - Scattered Clouds 2600ft 1015 No Significant change USCC 190630Z 36009MPS 9999 SCT026CB 08/00 Q1015 R27/000060 NOSIG RMK QFE741
MVFR 7°C / 0°C 10º 17kt Gust 27kt 9700m - Broken Clouds 2400ft 1015 No Significant change. Runway 27: Damp, 51-100% contamination with <1mm, friction coefficient 0.50. USCC 190600Z 01009G14MPS 9999 BKN024CB 07/00 Q1015 R27/190050 NOSIG RMK QFE741
MVFR 6°C / 0°C 20º 16kt Gust 25kt 9700m - Broken Clouds 2000ft 1015 No Significant change. Runway 27: Damp, 51-100% contamination with <1mm, friction coefficient 0.50. USCC 190530Z 02008G13MPS 9999 BKN020CB 06/00 Q1015 R27/190050 NOSIG RMK QFE741
MVFR 5°C / 1°C 10º 16kt 9700m - Broken Clouds 1900ft 1015 No Significant change. Runway 27: Damp, 51-100% contamination with <1mm, friction coefficient 0.50. USCC 190500Z 01008MPS 9999 BKN019CB 05/01 Q1015 R27/190050 NOSIG RMK QFE741
MVFR 5°C / 2°C 10º 16kt 9700m - Broken Clouds 1900ft 1015 No Significant change. Runway 27: Wet or puddles, 51-100% contamination with <1mm, friction coefficient 0.45. USCC 190430Z 01008MPS 9999 BKN019CB 05/02 Q1015 R27/290045 NOSIG RMK QFE741
MVFR 5°C / 2°C 10º 16kt 9700m Light Showers Rain 3.00mm precipitation Broken Clouds 1500ft 1015 No Significant change. Runway 27: Wet or puddles, 51-100% contamination with <1mm, friction coefficient 0.45. USCC 190400Z 01008MPS 9999 -SHRA BKN015CB 05/02 Q1015 R27/290045 NOSIG RMK QFE741
MVFR 5°C / 1°C 20º 14kt Gust 23kt 9700m Light Showers Rain 3.00mm precipitation Broken Clouds 1700ft 1015 No Significant change. Runway 27: Wet or puddles, 51-100% contamination with <1mm, friction coefficient 0.45. USCC 190330Z 02007G12MPS 9999 -SHRA BKN017CB 05/01 Q1015 R27/290045 NOSIG RMK QFE741
MVFR 5°C / 2°C 20º 16kt 9700m - Broken Clouds 1600ft 1014 No Significant change. Runway 27: Wet or puddles, 51-100% contamination with <1mm, friction coefficient 0.45. USCC 190300Z 02008MPS 9999 BKN016CB 05/02 Q1014 R27/290045 NOSIG RMK QFE741
MVFR 5°C / 2°C 10º 12kt 9700m - Broken Clouds 1500ft 1014 No Significant change. Runway 27: Wet or puddles, 51-100% contamination with <1mm, friction coefficient 0.45. USCC 190230Z 01006MPS 9999 BKN015 05/02 Q1014 R27/290045 NOSIG RMK QFE741

VFR

12°C / -3°C

[Mais]
Vento 10º 16kt
Visibilidade 9700m
Tempo -
Nuvens Clouds and Visibility OK
Pressão 1013
Mudança No Significant change
Bruto USCC 191400Z 01008MPS CAVOK 12/M03 Q1013 R27/000060 NOSIG RMK QFE740

VFR

12°C / -2°C

[Mais]
Vento 20º 16kt
Visibilidade 9700m
Tempo -
Nuvens Clouds and Visibility OK
Pressão 1013
Mudança No Significant change
Bruto USCC 191330Z 02008MPS CAVOK 12/M02 Q1013 R27/000060 NOSIG RMK QFE740

VFR

12°C / -2°C

[Mais]
Vento 10º 16kt
Visibilidade 9700m
Tempo -
Nuvens Clouds and Visibility OK
Pressão 1013
Mudança No Significant change
Bruto USCC 191300Z 01008MPS CAVOK 12/M02 Q1013 R27/000060 NOSIG RMK QFE740

VFR

12°C / -1°C

[Mais]
Vento 10º 14kt
Visibilidade 9700m
Tempo -
Nuvens Scattered Clouds 4000ft
Pressão 1013
Mudança No Significant change
Bruto USCC 191230Z 01007MPS 9999 SCT040 12/M01 Q1013 R27/000060 NOSIG RMK QFE740

VFR

13°C / -1°C

[Mais]
Vento 20º 17kt
Visibilidade 9700m
Tempo -
Nuvens Scattered Clouds 4000ft
Pressão 1013
Mudança No Significant change
Bruto USCC 191200Z 02009MPS 9999 SCT040 13/M01 Q1013 R27/000060 NOSIG RMK QFE740

VFR

12°C / -1°C

[Mais]
Vento 20º 14kt
Visibilidade 9700m
Tempo -
Nuvens Scattered Clouds 4000ft
Pressão 1014
Mudança No Significant change
Bruto USCC 191130Z 02007MPS 9999 SCT040CB 12/M01 Q1014 R27/000060 NOSIG RMK QFE740

VFR

12°C / -1°C

[Mais]
Vento 10º 16kt
Visibilidade 9700m
Tempo -
Nuvens Scattered Clouds 4000ft
Pressão 1013
Mudança No Significant change
Bruto USCC 191100Z 01008MPS 9999 SCT040CB 12/M01 Q1013 R27/000060 NOSIG RMK QFE740

VFR

12°C / -1°C

[Mais]
Vento 10º 17kt
Visibilidade 9700m
Tempo -
Nuvens Scattered Clouds 4000ft
Pressão 1013
Mudança No Significant change
Bruto USCC 191030Z 01009MPS 9999 SCT040CB 12/M01 Q1013 R27/000060 NOSIG RMK QFE740

VFR

12°C / -1°C

[Mais]
Vento 20º 14kt
Visibilidade 9700m
Tempo -
Nuvens Scattered Clouds 4000ft
Pressão 1014
Mudança No Significant change
Bruto USCC 191000Z 02007MPS 9999 SCT040CB 12/M01 Q1014 R27/000060 NOSIG RMK QFE740

VFR

11°C / 0°C

[Mais]
Vento 10º 17kt
Visibilidade 9700m
Tempo -
Nuvens Scattered Clouds 4000ft
Pressão 1014
Mudança No Significant change
Bruto USCC 190930Z 01009MPS 9999 SCT040CB 11/M00 Q1014 R27/000060 NOSIG RMK QFE740

VFR

10°C / 0°C

[Mais]
Vento 10º 14kt
Visibilidade 9700m
Tempo -
Nuvens Scattered Clouds 4000ft
Pressão 1014
Mudança No Significant change
Bruto USCC 190900Z 01007MPS 9999 SCT040CB 10/M00 Q1014 R27/000060 NOSIG RMK QFE740

VFR

10°C / 0°C

[Mais]
Vento 10º 17kt
Visibilidade 9700m
Tempo -
Nuvens Scattered Clouds 4000ft
Pressão 1014
Mudança No Significant change
Bruto USCC 190830Z 01009MPS 9999 SCT040CB 10/M00 Q1014 R27/000060 NOSIG RMK QFE740

VFR

10°C / 0°C

[Mais]
Vento 10º 17kt
Visibilidade 9700m
Tempo -
Nuvens Scattered Clouds 3000ft
Pressão 1014
Mudança No Significant change
Bruto USCC 190800Z 01009MPS 9999 SCT030CB 10/M00 Q1014 R27/000060 NOSIG RMK QFE741

VFR

9°C / 0°C

[Mais]
Vento 360º 17kt
Visibilidade 9700m
Tempo -
Nuvens Scattered Clouds 3000ft
Pressão 1014
Mudança No Significant change
Bruto USCC 190730Z 36009MPS 9999 SCT030CB 09/00 Q1014 R27/000060 NOSIG RMK QFE740

VFR

10°C / 0°C

[Mais]
Vento 20º 17kt Gust 27kt
Visibilidade 9700m
Tempo -
Nuvens Scattered Clouds 3000ft
Pressão 1014
Mudança No Significant change
Bruto USCC 190700Z 02009G14MPS 9999 SCT030CB 10/00 Q1014 R27/000060 NOSIG RMK QFE741

VFR

8°C / 0°C

[Mais]
Vento 360º 17kt
Visibilidade 9700m
Tempo -
Nuvens Scattered Clouds 2600ft
Pressão 1015
Mudança No Significant change
Bruto USCC 190630Z 36009MPS 9999 SCT026CB 08/00 Q1015 R27/000060 NOSIG RMK QFE741

MVFR

7°C / 0°C

[Mais]
Vento 10º 17kt Gust 27kt
Visibilidade 9700m
Tempo -
Nuvens Broken Clouds 2400ft
Pressão 1015
Mudança No Significant change. Runway 27: Damp, 51-100% contamination with <1mm, friction coefficient 0.50.
Bruto USCC 190600Z 01009G14MPS 9999 BKN024CB 07/00 Q1015 R27/190050 NOSIG RMK QFE741

MVFR

6°C / 0°C

[Mais]
Vento 20º 16kt Gust 25kt
Visibilidade 9700m
Tempo -
Nuvens Broken Clouds 2000ft
Pressão 1015
Mudança No Significant change. Runway 27: Damp, 51-100% contamination with <1mm, friction coefficient 0.50.
Bruto USCC 190530Z 02008G13MPS 9999 BKN020CB 06/00 Q1015 R27/190050 NOSIG RMK QFE741

MVFR

5°C / 1°C

[Mais]
Vento 10º 16kt
Visibilidade 9700m
Tempo -
Nuvens Broken Clouds 1900ft
Pressão 1015
Mudança No Significant change. Runway 27: Damp, 51-100% contamination with <1mm, friction coefficient 0.50.
Bruto USCC 190500Z 01008MPS 9999 BKN019CB 05/01 Q1015 R27/190050 NOSIG RMK QFE741

MVFR

5°C / 2°C

[Mais]
Vento 10º 16kt
Visibilidade 9700m
Tempo -
Nuvens Broken Clouds 1900ft
Pressão 1015
Mudança No Significant change. Runway 27: Wet or puddles, 51-100% contamination with <1mm, friction coefficient 0.45.
Bruto USCC 190430Z 01008MPS 9999 BKN019CB 05/02 Q1015 R27/290045 NOSIG RMK QFE741

MVFR

5°C / 2°C

[Mais]
Vento 10º 16kt
Visibilidade 9700m
Tempo Light Showers Rain 3.00mm precipitation
Nuvens Broken Clouds 1500ft
Pressão 1015
Mudança No Significant change. Runway 27: Wet or puddles, 51-100% contamination with <1mm, friction coefficient 0.45.
Bruto USCC 190400Z 01008MPS 9999 -SHRA BKN015CB 05/02 Q1015 R27/290045 NOSIG RMK QFE741

MVFR

5°C / 1°C

[Mais]
Vento 20º 14kt Gust 23kt
Visibilidade 9700m
Tempo Light Showers Rain 3.00mm precipitation
Nuvens Broken Clouds 1700ft
Pressão 1015
Mudança No Significant change. Runway 27: Wet or puddles, 51-100% contamination with <1mm, friction coefficient 0.45.
Bruto USCC 190330Z 02007G12MPS 9999 -SHRA BKN017CB 05/01 Q1015 R27/290045 NOSIG RMK QFE741

MVFR

5°C / 2°C

[Mais]
Vento 20º 16kt
Visibilidade 9700m
Tempo -
Nuvens Broken Clouds 1600ft
Pressão 1014
Mudança No Significant change. Runway 27: Wet or puddles, 51-100% contamination with <1mm, friction coefficient 0.45.
Bruto USCC 190300Z 02008MPS 9999 BKN016CB 05/02 Q1014 R27/290045 NOSIG RMK QFE741

MVFR

5°C / 2°C

[Mais]
Vento 10º 12kt
Visibilidade 9700m
Tempo -
Nuvens Broken Clouds 1500ft
Pressão 1014
Mudança No Significant change. Runway 27: Wet or puddles, 51-100% contamination with <1mm, friction coefficient 0.45.
Bruto USCC 190230Z 01006MPS 9999 BKN015 05/02 Q1014 R27/290045 NOSIG RMK QFE741

TAF para 55.31°N 61.5°L (USCC)

From till


From till Wind 10º 10kt. Gust 27kt. Visibility 9700m. Broken Clouds 3000ft.
Temporarly from till Wind 30º 19kt. Gust 35kt. Light Showers Rain . Broken Clouds 1600ft.

Bruto: TAF USCC 191054Z 1912/2012 01005G14MPS 9999 BKN030CB TEMPO 1912/1918 03010G18MPS -SHRA BKN016CB

Radar para 55.31°N 61.5°L

Chuvisco
Leve
Moderado
Forte
Muito forte
Granizo

O marcador do lugar é colocado em 55.31°N 61.5°L. As cruzes de cor laranja indicam relâmpagos. Dados fornecidos por nowcast.de (disponível nos EUA, Europa e Austrália). A queda de neve suave ou ligeira pode ser invisível para o radar. A intensidade da precipitação é codificada por cores, variando de turquesa a vermelha.

Imagens atuais de satélite e precipitação para 55.31°N 61.5°L

O marcador de lugar é colocado em 55.31°N 61.5°L. [Mais]

A imagem de satélite em tempo real combina luz visível durante o dia com radiação infravermelha durante a noite. À noite, a imagem não é escura, pois a radiação infravermelha pode detectar diferenças de temperatura. Infelizmente, nuvens baixas e neblina são difíceis de distinguir das temperaturas do solo e, portanto, podem ser quase invisíveis durante a noite. As imagens de satélite Meteosat para a Europa são atualizadas em tempo real a cada 5 minutos. GOES-16/GOES-17 ( América do Norte e do Sul) e Himawari (Ásia) são atualizadas a cada 10 minutos.

A precipitação é estimada a partir de radares e satélites. As estimativas de precipitação a partir de satélites são menos precisas à noite do que durante o dia.

© 2024 meteoblue, NOAA Satellites GOES-16 and EUMETSAT. Dados de relâmpagos fornecidos por nowcast.

Voltar ao início
×
Olá,
parece que você está usando um bloqueador de anúncios.

A publicidade é essencial para manter o nosso site gratuito com detalhes e precisão únicos.

Por favor approve www.meteoblue.com no seu bloqueador de anúncios ou considere a compra de um dos nossos produtos:

Já tem uma assinatura?
Então por favor login.